Regional Weather Roundup
Issued by NWS

Home | Current Version | Previous Version | Text Only | Print | Product List | Glossary Off
Versions: 1 2 3 4 5 6 7 8 9 10 11 12 13 14 15 16 17 18 19 20 21 22 23 24 25 26 27 28 29 30 31 32 33 34 35 36 37 38 39 40 41 42 43 44 45 46 47 48 49 50

000
ASUS43 KFSD 250010
RWRSD

WEATHER ROUNDUP FOR SOUTH DAKOTA
NATIONAL WEATHER SERVICE SIOUX FALLS SD
700 PM CDT WED MAY 24 2017

NOTE: "FAIR" INDICATES FEW OR NO CLOUDS BELOW 12,000 FEET WITH NO
SIGNIFICANT WEATHER AND/OR OBSTRUCTIONS TO VISIBILITY.


SDZ001>005-009-010-012>017-250100-
NORTHWEST AND NORTH CENTRAL SOUTH DAKOTA

CITY           SKY/WX    TMP DP  RH WIND       PRES   REMARKS
BUFFALO          N/A     75  44  33 SE35G43   29.21F
FAITH            N/A     71  40  32 SE31G41   29.36F
MOBRIDGE       SUNNY     68  41  37 S22G31    29.45F
$$

SDZ012>016-024>037-041>051-057-063-072>074-250100-
SOUTHWEST AND SOUTH CENTRAL SOUTH DAKOTA

CITY           SKY/WX    TMP DP  RH WIND       PRES   REMARKS
RAPID CTY ARPT SUNNY     77  49  37 S22G30    29.36F
PIERRE         SUNNY     69  40  34 SE24G32   29.48F
CUSTER         SUNNY     69  45  41 S9        29.49F
ELLSWORTH AFB  SUNNY     78  48  35 S24       29.34F
PHILIP         SUNNY     76  43  30 S21G31    29.40F
PINE RIDGE     SUNNY     78  48  34 S18G25    29.41F
SPEARFISH      LGT RAIN  79  52  38 VRB5G13   29.33F VSB 1
WINNER         FAIR      69  42  37 S18G25    29.54F
$$

SDZ004>011-016>023-039-040-250100-
NORTHEAST SOUTH DAKOTA

CITY           SKY/WX    TMP DP  RH WIND       PRES   REMARKS
ABERDEEN       MOSUNNY   66  41  40 S17G29    29.57F
WATERTOWN      CLOUDY    60  44  55 SE13      29.64F
BROOKINGS      PTSUNNY   59  46  62 E13       29.67S
SISSETON         N/A     62  45  53 SE18G24   29.63F
$$

SDZ017-020-022-023-036>040-048>070-250100-
SOUTHEAST SOUTH DAKOTA

CITY           SKY/WX    TMP DP  RH WIND       PRES   REMARKS
SIOUX FALLS    PTSUNNY   63  47  55 SE10      29.66S
HURON          SUNNY     64  44  48 SE20G26   29.59F
CHAMBERLAIN    SUNNY     68  45  43 SE16G24   29.55F
MITCHELL       MOSUNNY   65  45  48 SE20      29.62F
YANKTON        SUNNY     64  45  49 SE10      29.65F
$$

ABBREVIATIONS USED IN REMARKS
   TC - TEMPERATURE IN CELSIUS
  WCI - WIND CHILL INDEX
   HX - HEAT INDEX
  VSB - VISIBILITY





USA.gov is the U.S. government's official web portal to all federal, state and local government web resources and services.